Weather WX

World > North America > United States > Pennsylvania

Shamokin, Pennsylvania Regional Weather

Lat: 40.79N, Lon: 76.55W
Wx Zone: PAZ052
Feedback

Shamokin, PA Regional Weather

Expires:201907160900;;719093
ASUS41 KOKX 160814
RWROKX

Regional Weather Roundup
National Weather Service New York NY
400 AM EDT TUE JUL 16 2019

Note: "FAIR" indicates few or no clouds below 12,000 feet with no
significant weather and/or obstructions to visibility.


PAZ047>061-062-071-160900-
Eastern Pennsylvania
  
CITY           SKY/WX    TMP DP  RH WIND       PRES   REMARKS
Philadelphia   MOCLDY    72  65  78 S3        30.06F                  
Allentown      FAIR      65  61  87 N3        30.07S                  
Scranton       FAIR      64  58  80 E6        30.09S                  
$$


SKY/WX - Weather  TMP - Temperature  DP - Dew Point  RH - Relative Humidity
WIND - Wind Direction/Speed PRES - Barometric Pressure VSB - Visibility
WCI - Wind Chill Index E13G22 Wind - East Wind 13 mph/Gusts of 22 mph